Regional Weather Roundup
Issued by NWS

Home | Current Version | Previous Version | Text Only | Print | Product List | Glossary Off
Versions: 1 2 3 4 5 6 7 8 9 10 11 12 13 14 15 16 17 18 19 20 21 22 23 24 25 26 27 28 29 30 31 32 33 34 35 36 37 38 39 40 41 42 43 44 45 46 47 48 49 50

000
ASUS43 KMPX 240010
RWRMN
WEATHER ROUNDUP FOR MINNESOTA
NATIONAL WEATHER SERVICE TWIN CITIES/CHANHASSEN MN
700 PM CDT SAT MAY 23 2015


NOTE: "FAIR" INDICATES FEW OR NO CLOUDS BELOW 12,000 FEET WITH NO
SIGNIFICANT WEATHER AND/OR OBSTRUCTIONS TO VISIBILITY. N/A MEANS
CURRENT SKY AND/OR WEATHER CONDITIONS ARE NOT AVAILABLE.

MNZ060>063-068>070-240100-
   Twin Cities Metro

CITY           SKY/WX    TMP DP  RH WIND       PRES   REMARKS
TWIN CITIES    PTSUNNY   68  46  45 NE13      30.14F
6HR MIN TEMP:  68; 6HR MAX TEMP:  73;

ST PAUL        CLOUDY    67  46  47 NE8       30.15F
CRYSTAL        LGT RAIN  65  47  52 NE5       30.14F
BLAINE         LGT RAIN  64  50  59 N10       30.16F
LAKEVILLE      PTSUNNY   70  45  40 NE7       30.13F
EDEN PRAIRIE   PTSUNNY   67  46  47 NE10      30.13F
6HR MIN TEMP:  67; 6HR MAX TEMP:  72;

SOUTH ST PAUL  PTSUNNY   68  44  42 N10       30.14F
LAKE ELMO      CLOUDY    64  46  52 NE7       30.16F
$$
MNZ001>005-007-008-013>017-022>024-027-028-240100-
   Northwest Minnesota

CITY           SKY/WX    TMP DP  RH WIND       PRES   REMARKS
BEMIDJI        MOSUNNY   73  41  31 SW6       30.12S
HALLOCK        SUNNY     79  27  14 S3        30.05F
ROSEAU         SUNNY     77  34  20 SW7       30.07F
WARROAD        SUNNY     75  41  29 SW3       30.08S
THIEF RVR FALL SUNNY     73  41  31 S12G17    30.10F
CROOKSTON      SUNNY     73  43  33 SW12G17   30.10F
FOSSTON        MOSUNNY   75  39  27 SW5       30.12S
DETROIT LAKES  MOSUNNY   68  43  40 S12       30.15F
MOORHEAD       MOSUNNY   70  45  40 S8        30.12F
PARK RAPIDS    PTSUNNY   69  40  34 S12       30.15F
MAHNOMEN       FAIR      70  45  40 S12       30.12F
$$
MNZ006-009>011-018-025>026-240100-
   North Central Minnesota

CITY           SKY/WX    TMP DP  RH WIND       PRES   REMARKS
BAUDETTE       SUNNY     76  32  20 S6        30.08F
FLAG ISLAND    SUNNY     63  48  59 S9        30.05S
INTL FALLS     SUNNY     77  34  21 W9        30.07F
6HR MIN TEMP:  75; 6HR MAX TEMP:  80;

WASKISH        SUNNY     72  46  40 CALM      30.10F
BIG FORK       SUNNY     75  39  27 SW7       30.11S
LONGVILLE      PTSUNNY   70  43  37 S8        30.15S
GRAND RAPIDS   MOSUNNY   70  43  37 SW8       30.14S
CRANE LAKE     MOSUNNY   72  30  21 CALM      30.09S
ORR            SUNNY     75  27  16 CALM      30.07S
COOK           SUNNY     75  34  22 W5        30.09F
WALKER         FAIR      68  43  40 S9        30.14R
$$
MNZ012-019>021-037-240100-
   Northeast Minnesota

CITY           SKY/WX    TMP DP  RH WIND       PRES   REMARKS
DULUTH         MOSUNNY   71  42  35 SW18      30.14F
6HR MIN TEMP:  71; 6HR MAX TEMP:  78;

ELY            MOSUNNY   75  30  19 SW9       30.09S
HIBBING        MOSUNNY   73  37  27 SW7       30.11F
EVELETH        MOSUNNY   72  36  26 SW9       30.12S
DULUTH HARBOR  MOSUNNY   73  45  35 S16       30.13S
TWO HARBORS    MOSUNNY   75  48  38 S16G23    30.09F
SILVER BAY     MOSUNNY   75  34  22 S15G22    30.08F
GRAND MARAIS     N/A     48  37  65 SW9       30.08S
G MARAIS ARPRT SUNNY     70  25  18 S8G17     30.12F
$$
MNZ029>031-032-039>041-046>048-054>057-064-240100-
   West Central Minnesota

CITY           SKY/WX    TMP DP  RH WIND       PRES   REMARKS
FERGUS FALLS   PTSUNNY   66  46  48 SE9       30.13F
WHEATON        CLOUDY    66  48  52 SE9       30.12F
MORRIS         CLOUDY    68  46  45 E8        30.11F
ALEXANDRIA     CLOUDY    65  45  48 SE8       30.16F
ELBOW LAKE     PTSUNNY   65  47  51 SE8       30.13F
WADENA         PTSUNNY   66  45  45 E3        30.14F
GLENWOOD       CLOUDY    64  46  52 E6        30.15F
APPLETON       CLOUDY    68  46  45 E8        30.10F
BENSON         CLOUDY    66  45  45 SE5       30.12F
ORTONVILLE     CLOUDY    66  46  48 E8        30.10F
MADISON        CLOUDY    68  48  49 E14       30.09F
WILLMAR        FAIR      66  48  52 E12       30.13F
$$
MNZ033>034-036-042>043-049>051-058-059-240100-
   Central Minnesota

CITY           SKY/WX    TMP DP  RH WIND       PRES   REMARKS
ST CLOUD       CLOUDY    66  45  46 E5        30.15F
6HR MIN TEMP:  63; 6HR MAX TEMP:  68; 6HR PCP: TRACE;

SAUK CENTRE    CLOUDY    64  47  54 E6        30.16F
PAYNESVILLE    CLOUDY    62  45  52 NE7       30.14F
AITKIN         PTSUNNY   70  39  32 SW9       30.15S
PINE RIVER     PTSUNNY   66  45  45 S10       30.19S
BRAINERD       PTSUNNY   66  42  41 SW9       30.16F
STAPLES        PTSUNNY   66  41  39 S7        30.16F
LONG PRAIRIE   CLOUDY    64  43  45 E7        30.16F
LITTLE FALLS   PTSUNNY   64  41  42 SE3       30.16F
LITCHFIELD     CLOUDY    64  48  55 E9        30.15F
BUFFALO        CLOUDY    64  49  59 NE7       30.16F
MAPLE LAKE     CLOUDY    64  52  66 NE7       30.16F
$$
MNZ037-044-045-052-053-240100-
   East Central Minnesota

CITY           SKY/WX    TMP DP  RH WIND       PRES   REMARKS
PRINCETON      CLOUDY    66  46  48 NE5       30.16F
MORA           MOSUNNY   64  41  42 CALM      30.19F
CAMBRIDGE      CLOUDY    68  50  52 CALM      30.15F
RUSH CITY      CLOUDY    65  50  58 CALM      30.18F
MOOSE LAKE     MOSUNNY   66  39  37 SW9       30.15S
HINCKLEY       FAIR      68  45  42 SW7       30.18S
CLOQUET        MOSUNNY   70  37  30 S10       30.15S
MCGREGOR       MOSUNNY   68  43  40 S13       30.17S
$$
MNZ071>073-080-081-089-090-097-098-240100-
   Southwest Minnesota

CITY           SKY/WX    TMP DP  RH WIND       PRES   REMARKS
MONTEVIDEO     CLOUDY    66  48  52 SE10      30.11F
GRANITE FALLS  CLOUDY    66  49  53 E9        30.12F
CANBY          CLOUDY    69  47  45 E10       30.09F
MARSHALL       CLOUDY    68  46  45 E12       30.09F
REDWOOD FALLS  CLOUDY    66  50  56 NE7       30.10F
OLIVIA         CLOUDY    63  45  51 NE8G16    30.11F
PIPESTONE      CLOUDY    66  48  52 SE3       30.08F
WINDOM         CLOUDY    66  46  48 S9G18     30.11S
WORTHINGTON    CLOUDY    66  45  45 S12       30.10F
JACKSON        CLOUDY    68  45  42 SE9       30.12F
TRACY          CLOUDY    69  51  51 SE7       30.09F
SLAYTON        CLOUDY    67  48  51 SE16      30.10S
$$
MNZ065>067-074>077-082>085-091>093-240100-
   South Central Minnesota

CITY           SKY/WX    TMP DP  RH WIND       PRES   REMARKS
MANKATO        CLOUDY    72  46  40 S16G24    30.12S
NEW ULM        CLOUDY    72  45  37 S10       30.10S
ST JAMES       CLOUDY    70  52  52 SE16G24   30.12S
FAIRMONT       CLOUDY    66  46  48 SE14      30.12F
GLENCOE        CLOUDY    65  52  61 NE9       30.12F
FARIBAULT      CLOUDY    73  43  33 E3        30.12F
OWATONNA       CLOUDY    73  43  33 S7        30.12F
WASECA         CLOUDY    70  48  46 S14       30.13F
ALBERT LEA     CLOUDY    70  50  49 SE9       30.13S
$$
MNZ078>079-086>088-094>096-240100-
   Southeast Minnesota

CITY           SKY/WX    TMP DP  RH WIND       PRES   REMARKS
ROCHESTER      CLOUDY    72  43  35 S7        30.14F
6HR MIN TEMP:  70; 6HR MAX TEMP:  76;

RED WING       PTSUNNY   73  41  31 E3        30.13F
STANTON        CLOUDY    74  41  30 E10       30.11F
DODGE CENTER   CLOUDY    73  43  33 S8        30.14S
WINONA         CLOUDY    73  50  43 SE5       30.13F
AUSTIN         CLOUDY    72  46  40 S7        30.13S
PRESTON        CLOUDY    72  43  35 S8        30.15F
$$
ABBREVIATIONS USED IN REMARKS
   TC - TEMPERATURES IN CELSIUS
  WCI - WIND CHILL INDEX
   HX - HEAT INDEX
  VSB - VISIBILITY
$$



USA.gov is the U.S. government's official web portal to all federal, state and local government web resources and services.